Kelowna, British Columbia

12:59 AM PDT on June 29, 2017 (GMT -0700)
Kelowna

Weather History for CYLW - October, 2012

Change the Weather History Date:

Wednesday, October 31, 2012

  Actual Average Record
Temperature  
Mean Temperature 48 °F -  
Max Temperature 49 °F 40 °F 59 °F (1997)
Min Temperature 46 °F 26 °F 14 °F (2002)
Degree Days  
Heating Degree Days 18    
Moisture  
Dew Point 46 °F    
Average Humidity 94    
Maximum Humidity 100    
Minimum Humidity 87    
Precipitation  
Precipitation 0.12 in 0.04 in - ()
Sea Level Pressure  
Sea Level Pressure 29.79 in    
Wind  
Wind Speed 5 mph ()    
Max Wind Speed 8 mph    
Max Gust Speed -    
Visibility 7.4 miles    
Events Rain    
Averages and records for this station are not official NWS values.
T = Trace of Precipitation, MM = Missing Value Source: Averaged Metar Reports

Daily Weather History Graph

Daily Weather History Graph

Search for Another Location

Airport or City:

Trip Planner

Search our weather history database for the weather conditions in past years. The results will help you decide how hot, cold, wet, or windy it might be!

Date:

Astronomy

Oct. 31, 2012 Rise Set
Actual Time 7:46 AM PDT 5:34 PM PDT
Civil Twilight 7:12 AM PDT 6:08 PM PDT
Nautical Twilight 6:34 AM PDT 6:46 PM PDT
Astronomical Twilight 5:56 AM PDT 7:24 PM PDT
Moon 6:37 PM PDT (10/31) 9:43 AM PDT (10/31)
Length of Visible Light 10h 56m
Length of Day
9h 48m
Waning Gibbous, 97% of the Moon is Illuminated
Oct 31
Waning Gibbous
Nov 6
Last Quarter
Nov 13
New
Nov 20
First Quarter
Nov 28
Full

Hourly Weather History & Observations

Time (PDT) Temp. Windchill Dew Point Humidity Pressure Visibility Wind Dir Wind Speed Gust Speed Precip Events Conditions
12:00 AM 46.4 °F 42.9 °F 46.4 °F 100% 29.91 in 8.0 mi North 6.9 mph - N/A Rain Light Rain
1:00 AM 46.4 °F 42.4 °F 44.6 °F 93% 29.90 in 9.0 mi North 8.1 mph - N/A Rain Light Rain
1:24 AM 46.4 °F 42.4 °F 46.4 °F 100% 29.90 in 9.0 mi NNE 8.1 mph - N/A Rain Light Rain
1:54 AM 46.4 °F 42.4 °F 44.6 °F 93% 29.89 in 8.0 mi North 8.1 mph - N/A Rain Light Rain
2:00 AM 46.4 °F 42.9 °F 44.6 °F 93% 29.89 in 8.0 mi North 6.9 mph - N/A Rain Light Rain
2:03 AM 46.4 °F 42.4 °F 44.6 °F 93% 29.89 in 9.0 mi North 8.1 mph - N/A Rain Light Rain
3:00 AM 46.4 °F 42.4 °F 44.6 °F 93% 29.87 in 9.0 mi North 8.1 mph - N/A Rain Light Rain
3:26 AM 46.4 °F 42.9 °F 44.6 °F 93% 29.86 in 9.0 mi NNE 6.9 mph - N/A   Overcast
4:00 AM 46.4 °F 43.5 °F 44.6 °F 93% 29.86 in 9.0 mi North 5.8 mph - N/A   Overcast
4:01 AM 46.4 °F 43.5 °F 44.6 °F 93% 29.86 in 9.0 mi North 5.8 mph - N/A Rain Light Rain
4:17 AM 46.4 °F 45.2 °F 44.6 °F 93% 29.86 in 9.0 mi NE 3.5 mph - N/A   Overcast
4:19 AM 46.4 °F 45.2 °F 44.6 °F 93% 29.86 in 9.0 mi NNE 3.5 mph - N/A Rain Light Rain
4:42 AM 46.4 °F 43.5 °F 44.6 °F 93% 29.86 in 9.0 mi NNE 5.8 mph - N/A   Overcast
4:45 AM 46.4 °F 42.9 °F 44.6 °F 93% 29.85 in 9.0 mi North 6.9 mph - N/A Rain Light Rain
5:00 AM 47 °F - 45 °F 90% 29.85 in 10 mi North 6.9 mph - - Rain Light Rain
5:00 AM 46.4 °F 43.5 °F 44.6 °F 93% 29.85 in 9.0 mi North 5.8 mph - N/A Rain Light Rain
6:00 AM 46.4 °F 44.3 °F 44.6 °F 93% 29.85 in 9.0 mi NNE 4.6 mph - N/A Rain Light Rain
7:00 AM 46.4 °F 42.9 °F 44.6 °F 93% 29.84 in 9.0 mi North 6.9 mph - N/A Rain Light Rain
8:00 AM 46.4 °F 43.5 °F 44.6 °F 93% 29.82 in 9.0 mi North 5.8 mph - N/A Rain Light Rain
9:00 AM 48.2 °F - 44.6 °F 87% 29.83 in 9.0 mi Variable 2.3 mph - N/A Rain Light Rain
9:30 AM 48.2 °F - 46.4 °F 93% 29.83 in 9.0 mi North 3.5 mph - N/A   Overcast
9:45 AM 48.2 °F - 44.6 °F 87% 29.83 in 9.0 mi NNE 4.6 mph - N/A   Overcast
9:47 AM 48.2 °F - 46.4 °F 93% 29.83 in 9.0 mi NNE 4.6 mph - N/A Rain Light Rain
10:01 AM 48.2 °F - 44.6 °F 87% 29.83 in 9.0 mi North 3.5 mph - N/A Rain Light Rain
10:20 AM 48.2 °F - 44.6 °F 87% 29.83 in 9.0 mi North 5.8 mph - N/A Rain Light Rain
11:00 AM 48 °F - 46 °F 89% 29.82 in 10 mi North 5.8 mph - - Rain Light Rain
11:00 AM 48.2 °F - 46.4 °F 93% 29.81 in 9.0 mi North 5.8 mph - N/A Rain Light Rain
11:21 AM 48.2 °F - 46.4 °F 93% 29.81 in 9.0 mi North 6.9 mph - N/A Rain Light Rain
12:00 PM 48.2 °F - 46.4 °F 93% 29.80 in 9.0 mi North 8.1 mph - N/A Rain Light Rain
12:55 PM 48.2 °F - 46.4 °F 93% 29.79 in 9.0 mi NNW 6.9 mph - N/A   Overcast
1:00 PM 48.2 °F - 46.4 °F 93% 29.79 in 9.0 mi North 5.8 mph - N/A   Overcast
1:13 PM 48.2 °F - 46.4 °F 93% 29.78 in 9.0 mi North 4.6 mph - N/A Rain Light Rain
1:51 PM 48.2 °F - 46.4 °F 93% 29.78 in 9.0 mi North 6.9 mph - N/A   Overcast
2:00 PM 48.2 °F - 46.4 °F 93% 29.77 in 9.0 mi North 6.9 mph - N/A   Overcast
2:57 PM 48.2 °F - 46.4 °F 93% 29.74 in 9.0 mi North 5.8 mph - N/A   Overcast
3:00 PM 48.2 °F - 46.4 °F 93% 29.74 in 9.0 mi North 5.8 mph - N/A   Overcast
4:00 PM 48.2 °F - 46.4 °F 93% 29.75 in 9.0 mi Variable 2.3 mph - N/A   Overcast
5:00 PM 48 °F - 46 °F 89% 29.73 in 10 mi North 4.6 mph - -   Clear
5:00 PM 48.2 °F - 46.4 °F 93% 29.73 in 9.0 mi North 4.6 mph - N/A   Overcast
5:46 PM 48.2 °F - 46.4 °F 93% 29.73 in 9.0 mi East 5.8 mph - N/A   Overcast
6:00 PM 48.2 °F - 46.4 °F 93% 29.73 in 9.0 mi Calm Calm - N/A   Overcast
7:00 PM 48.2 °F - 46.4 °F 93% 29.73 in 9.0 mi Calm Calm - N/A   Overcast
7:01 PM 48.2 °F - 46.4 °F 93% 29.73 in 9.0 mi Calm Calm - N/A   Overcast
7:15 PM 48.2 °F - 46.4 °F 93% 29.74 in 5.0 mi ESE 2.3 mph - N/A   Overcast
7:24 PM 48.2 °F - 46.4 °F 93% 29.74 in 6.0 mi Calm Calm - N/A   Overcast
7:28 PM 48.2 °F - 46.4 °F 93% 29.74 in 9.0 mi Calm Calm - N/A   Overcast
7:46 PM 48.2 °F - 46.4 °F 93% 29.74 in 5.0 mi ESE 2.3 mph - N/A   Overcast
7:53 PM 48.2 °F - 46.4 °F 93% 29.74 in 6.0 mi East 3.5 mph - N/A   Overcast
8:00 PM 48.2 °F - 46.4 °F 93% 29.74 in 9.0 mi Calm Calm - N/A   Overcast
8:34 PM 46.4 °F 45.2 °F 44.6 °F 93% 29.73 in 8.0 mi NE 3.5 mph - N/A   Overcast
9:00 PM 46.4 °F - 46.4 °F 100% 29.74 in 9.0 mi Calm Calm - N/A   Overcast
9:05 PM 46.4 °F - 44.6 °F 93% 29.74 in 9.0 mi NNW 2.3 mph - N/A   Overcast
9:12 PM 46.4 °F 45.2 °F 44.6 °F 93% 29.73 in 9.0 mi NNE 3.5 mph - N/A   Overcast
10:00 PM 46.4 °F - 44.6 °F 93% 29.75 in 9.0 mi Variable 2.3 mph - N/A   Overcast
10:06 PM 46.4 °F - 46.4 °F 100% 29.75 in 9.0 mi Variable 2.3 mph - N/A Rain Light Rain
10:18 PM 46.4 °F 45.2 °F 44.6 °F 93% 29.75 in 7.0 mi South 3.5 mph - N/A Rain Light Rain
10:24 PM 46.4 °F 45.2 °F 46.4 °F 100% 29.76 in 5.0 mi SSW 3.5 mph - N/A Rain Light Rain
10:26 PM 46.4 °F 45.2 °F 46.4 °F 100% 29.76 in 5.0 mi SW 3.5 mph - N/A Rain Light Rain
10:35 PM 46.4 °F 45.2 °F 46.4 °F 100% 29.77 in 4.0 mi South 3.5 mph - N/A Rain Rain
10:37 PM 46.4 °F 44.3 °F 46.4 °F 100% 29.77 in 4.0 mi South 4.6 mph - N/A Rain Rain
10:40 PM 46.4 °F - 46.4 °F 100% 29.77 in 4.0 mi South 2.3 mph - N/A Rain Rain
10:41 PM 46.4 °F 45.2 °F 46.4 °F 100% 29.77 in 3.0 mi SSE 3.5 mph - N/A Rain Rain
10:45 PM 46.4 °F 43.5 °F 46.4 °F 100% 29.78 in 3.0 mi South 5.8 mph - N/A Rain Rain
10:46 PM 46.4 °F 44.3 °F 46.4 °F 100% 29.78 in 3.0 mi SSE 4.6 mph - N/A Rain Rain
10:49 PM 46.4 °F 45.2 °F 46.4 °F 100% 29.78 in 2.2 mi SE 3.5 mph - N/A Rain Heavy Rain
10:51 PM 46.4 °F 42.9 °F 46.4 °F 100% 29.78 in 2.2 mi SE 6.9 mph - N/A Rain Rain
10:57 PM 46.4 °F 43.5 °F 46.4 °F 100% 29.77 in 2.2 mi ESE 5.8 mph - N/A Rain Rain
10:58 PM 46.4 °F 42.9 °F 46.4 °F 100% 29.77 in 2.5 mi ESE 6.9 mph - N/A Rain Rain
11:00 PM 47 °F - 46 °F 95% 29.77 in 2 mi ESE 6.9 mph - - Rain Rain
11:00 PM 46.4 °F 42.4 °F 46.4 °F 100% 29.77 in 2.5 mi ESE 8.1 mph - N/A Rain Rain
11:01 PM 46.4 °F 42.4 °F 46.4 °F 100% 29.77 in 3.0 mi ESE 8.1 mph - N/A Rain Rain
11:02 PM 46.4 °F 42.9 °F 46.4 °F 100% 29.76 in 3.0 mi ESE 6.9 mph - N/A Rain Rain
11:14 PM 48.2 °F - 46.4 °F 93% 29.75 in 6.0 mi South 4.6 mph - N/A Rain Light Rain